Kosmos-409

operational
NORAD ID: 5180 Int'l Des: 1971-038 Owner: OKB10 Country: SU
LEOCIRCULAR

关于 Kosmos-409

正在加载描述...

实时位置

正在加载3D地球...

即将过境

高度历史

Altitude vs Time

uPlot chart will show altitude changes over time

两行轨道根数

1 05180U 71038A 26062.64854139 -.00000149 00000-0 -33224-3 0 9992
2 05180 74.0029 172.4290 0022007 81.6040 24.9183 13.17841340638346
Epoch: Mar 3, 2026 • Age: 23 hours

当前状态

高度 1189.2 km
速度 7.27 km/s
星下点 65.96°N, 167.59°E
类型 other

大型星座

Loading constellations...